FENGYUN 1C DEB, 32361

Orbit data source: Space-Track

FENGYUN 1C DEB, 32361 is space debris in SSO originally from a launch on Mon, 10 May 1999 UTC launched from the Taiyaun Space Center, China (TSC). Fengyun 1C debris stems from the Chinese weather satellite Fengyun-1C, which was intentionally destroyed by a Chinese anti-satellite missile in 2007. This event dramatically increased the amount of space debris, with thousands of trackable fragments posing hazards to satellites and human spaceflight. The Fengyun 1C debris cloud has become a focal point in discussions about space sustainability and the need for international regulations to prevent the creation of new debris.

Loading next visibility...
Identifier
32361, 1999-025CZE
Orbit
SSO
Country
Flag of CNCN / PRC
Related business
Manufacturer
Unknown
Mission
Spacecraft
Bus & Motor
Unknown
Mass
Unknown
Launch date (UTC)
1999-05-10 (27 years ago)
Launch vehicle
Unknown
Launch site
Taiyaun Space Center, China (TSC)
Object type
Payload
Rocket body
Debris
Shape & HBR
Unknown shape, 0.1 m
Radar Cross Section
Small (<0.1 m²)

Expand to show TLE details & history
Last TLE update: 2 days ago

TLE from 2 days ago
0 FENGYUN 1C DEB
1 32361U 99025CZE 26174.15521774  .00005649  00000-0  13354-2 0  9994
2 32361  98.8456 248.5973 0045246 179.4640 180.6611 14.53927740991382
Epoch: 2026-06-23T03:43Z
TLE epoch observation values (Epoch: 2026-06-23T03:43:30.812Z)
Latitude
-0.00004°
Longitude
-78.61192°
Altitude
747.894 km
Speed
7.464 km/s
True Right ascension
16h 34m 23s
True Declination
0° 00' 00"
Sunlit
Object was in full shadow at epoch
Visualization orbit readout
Latitude
Unknown
Longitude
Unknown
Altitude
Unknown
Speed
Unknown
Apparent Right ascension
Unknown
Apparent Declination
Unknown
Sunlit
N/A
Visualization observer readout
Local Sidereal Time
19:25:04
Azimuth
Unknown
Elevation
Unknown
Doppler factor
Unknown
Orbital elements
Apogee altitude
742.04 km
Perigee altitude
677.898 km
Semi-major axis
7,088.106 km
Eccentricity
0.00452
Inclination
98.8456°
RAAN
248.5973°
Arg. of periapsis
179.464°
True anomaly
180.65515°
Mean anomaly
180.6611°
Eccentric anomaly
180.65812°
Mean motion
3.63704 °/min
Orbital period
98.98 mins
BSTAR
0.0013354
Loading maneuver chart data...
Computing Atmospheric mass density...

Documentation

Showing up to 5 results
|